Погода в Димитровграде

Погода в Димитровграде : погода сейчас, прогноз погоды и архив. Всё, что Вы хотите узнать о погоде в Димитровграде!

Хотите узнать прогноз погоды в Димитровграде? Тогда Вам сюда: Погода в Димитровграде

Поиск расширенной информации на нашем сайте:

Другие новости

Новости СМИ2

Главная страница сайта

Новости сайта

02.10.2013

Напоминаем, что на нашем новом сайте вы можете получить высокодетализированные прогнозы погоды по пунктам России, СНГ и мира (включающие важные для авиации метеовеличины, такие как направление и скорость ветра, видимость, явления погоды, количество и форма облачности, нижняя и верхняя граница облачности), а также ознакомиться с разнообразными материалами по авиационной метеорологии и подборкой полезных ссылок на эту тему.

Сайт Метеоцентр.Азия посвящён разработке технологий оптимизации авиаметеорологического обслуживания, включая проектирование и перспективное создание нескольких автоматизированных авиаметеорологических систем:
- система выпуска высокодетальных прогностических карт явлений погоды для нижнего воздушного пространства по России и ближнему зарубежью;
- система верификации прогнозов TAF (выпускаемых синоптиками официальных АМСГ РФ и ближнего зарубежья) и AUTOTAF (выпускаемых сайтом Метеоцентр.Азия) - выявление ошибок, онлайн-сопоставление с фактической погодой METAR, автоматическое внесение коррективов в прогнозы при резком отклонении фактической погоды от прогноза, подсчёт оправдываемости прогнозов по элементам и в целом;
- система обработки, анализа и отображения авиаметеорологической информации для применения провайдерами метеорологической информации.

Рекомендуем: п образный профиль Спб

Погода в Димитровграде - сегодня

Время (UTC), дата Ветер
(°,м/с) 
Видим.   Явления Облачность Т
(°С)
Тd
(°С)
f(%) Тe
(°С)
Pmin
(гПа)
dP
(гПа)
Po
(мм)
O2
(г/м3)
Тmin Tmax R s Состояние
почвы
12 23.02.17 180 (Ю) 10 км  {снег, дождь}  10/10 800 м 
[Sc]
+1.6 -0.2 88 1000.6  -0.5  744  298           
15 23.02.17 180 (Ю) 10 км    10/10 840 м 
[Sc]
+1.3 -0.7 86 1000.6  0.1  744  298    +2     
18 23.02.17 170 (Ю) 10 км    10/10 750 м 
[Frnb]
+0.6 -1.3 87 999.8  -0.8  743  299           
21 23.02.17 140 (ЮВ) 10 км    10/10 750 м 
[Frnb]
+0.3 -1.6 87 998.8  -1  742  299           
00 24.02.17 130 (ЮВ) 10 км    10/9 720 м средняя 
[Frnb|As op]
+0.3 -1.7 86 -2  997.2  -1.6  741  298           
03 24.02.17 130 (ЮВ) 4{10}  4000 м  слаб. снег  10/8 720 м средняя 
[Frnb|As op]
+0.2 -0.9 92 -2  996.4  -1.1  740  298  +0    0.0  54  равномерный
мокрый или
старый снег
100% 
06 24.02.17 130 (ЮВ) 10 км  {снег}  10/0 средняя 
[As op]
+0.6 -0.7 91 -1  997.4  1.1  741  298           
09 24.02.17 140 (ЮВ) 10 км    10/0 средняя 
[As op]
+1.3 -0.6 87 +1  998.4  742  298           
12 24.02.17 180 (Ю) 10 км    10/0 средняя 
[As op]
+1.2 +0.2 93 +2  1000.3  1.8  743  298           
15 24.02.17 160 (Ю) 10 км    10/0 средняя 
[As op]
+0.7 +0.1 96 +1  1001.5  1.2  744  299    +1.3  0.0     
18 24.02.17 180 (Ю) 10 км    10/10 800 м 
[Sc]
+0.9 -1 87 1002.2  0.7  745  299           
21 24.02.17 170 (Ю) 10 км    10/10 840 м 
[Sc]
+0.9 -1.4 85 -1  1000.6  -1.6  744  299           
00 25.02.17 200 (Ю) 10 км    10/0 средняя 
[As op]
+1.4 +0.6 94 -1  998  -2.5  742  297           
03 25.02.17 210 (ЮЗ) 4{10}  10 км  {снег}  10/0 средняя 
[As op]
+1.4 +0.8 96 -1  996.8  -1.1  741  297  +0.2    0.6  52  равномерный
мокрый или
старый снег
100% 
06 25.02.17 210 (ЮЗ) 4000 м  дымка{снег, дождь}  10/10 700 м 
[Frnb|Ns]
+2 +1.4 96 +1  997.8  0.9  742  296           
09 25.02.17 200 (Ю) 10 км    10/10 870 м 
[Sc]
+3.6 +1.3 85 +2  998.4  0.6  742  295           
12 25.02.17 200 (Ю) 10 км    10/10 870 м 
[Sc]
+3.4 +0.9 84 +1  998.1  -0.3  742  295           
15 25.02.17 190 (Ю) 10 км  {дождь}  10/10 800 м 
[Sc]
+2.1 +1 92 997.3  -0.8  741  296    +3.7  0.8     
18 25.02.17 200 (Ю) 4{11}  10 км  {дождь}  10/10 870 м 
[Sc]
+2.2 +0.5 88 995.8  -1.5  740  296           
21 25.02.17 280 (З) 5-10  10 км    10/10 800 м 
[Frnb]
+0.7 -0.4 92 -2  996.2  0.4  740  298           
00 26.02.17 300 (СЗ) 3{11}  10 км    10/10 800 м 
[Frnb]
-1.8 -5 79 -4  998.7  2.4  742  302           
03 26.02.17 270 (З) 10 км  {снег}  8/8 870 м 
[Sc]
-3.2 -6 81 -4  1001.1  2.3  744  304  -3.2    0.5  51  равномерный
мокрый или
старый снег
100% 
06 26.02.17 260 (З) 10 км  {снег}  6/6 840 м 
[Sc]
-2.1 -7.2 68 -4  1003.4  2.3  746  304  -3.7         
09 26.02.17 250 (З) 10 км    8/3 870 м верхняя 
[Cu med, cong|Ci sp]
+0.5 -6.5 59 -1  1004.5  1.2  747  301           
12 26.02.17 250 (З) 10 км    10/10 840 м 
[Frnb]
-0.2 -6.2 64 -3  1005.6  1.1  747  302           
Время (UTC), дата Ветер
(°,м/с) 
Видим.   Явления Облачность Т
(°С)
Тd
(°С)
f(%) Тe
(°С)
Pmin
(гПа)
dP
(гПа)
Po
(мм)
O2
(г/м3)
Тmin Tmax R s Состояние
почвы

Для получения пояснительной информации подведите курсор к названию столбца.

ПОГОДА в Димитровграде - архив

Всё, что Вы хотите узнать о погоде в Димитровграде - удобно и подробно!

Выберите нужную дату (начиная с 1 января 2015* года) и нажмите кнопку "Найти".
Будут отображены архивные сводки погоды по пункту Димитровград, начиная с указанной даты.


Отображать данные в формате CSV (для использования в таблицах Excel)


Внимание! Наш архив погоды предназначен исключительно для личного некоммерческого использования в познавательных целях. Если Вам необходимы официальные справки о состоянии погоды (для производственных, юридических, коммерческих и т.п. целей), обращайтесь в органы Росгидромета.

*Примечание: данная дата относится к архиву по метеостанциям СССР (Россия, СНГ, Балтия).
Архив по метеостанциям Зарубежной Европы и Азии (кроме Китая) хранится 10 дней, по другим регионам земного шара (Китай, Африка, Америка, Австралия, Океания) - 1 день.

Димитровград - район местоположения метеостанции


Название, широта, долгота, высота метеостанции:
Димитровград 54.2°ш. 49.6°д. 73 м над ур. моря [Российская Федерация]

Дополнительная информация

В oтличие oт бoльшинства пoгoдных сайтoв мы публикуем пoдрoбную метеoинфoрмацию в детальнoм прoфессиoнальнoм фoрмате.

Характеристики температуры и влажнoсти вoздуха измеряются на высoте 2 м в тени вдали oт зданий и деревьев.
Скoрoсть ветра измеряется на высoте 10 м (на урoвне рoста челoвека скoрoсть ветра ниже в 1.5-2 раза). Если метеoстанция нахoдится в гoрoде или в лесу, тo скoрoсть ветра занижена на 2-4 м/с пo сравнению с oткрытым местoм. Скoрoсть ветра над акватoриями крупных рек и oзёр, а также на вершинах хoлмoв на 2-5 м/с выше, чем в oбычных услoвиях.
Атмoсфернoе давление в разных тoчках местнoсти мoжет значительнo oтличаться oт давления на метеoстанции, в зависимoсти oт услoвий рельефа (при пoдъёме на 10 м давление пoнижается примернo на 1 мм рт.ст.).